Flag for Hungary Weather past 2 weeks in Miskolc, Hungary

Now
38 °F

Overcast.


Feels Like: 38 °F
Forecast: 28 / 41 °F
Wind: 2 mph from Northeast

Location: Miskolc

Current Time: Jan 25, 2015 at 1:32:13 PM

Latest Report: Jan 25, 2015 at 1:00 PM


Visibility: 6 mi

Pressure: 30.00 "Hg

Humidity: 82%

Dew point: 33 °F

Location of MiskolcLocation

Historic Weather in Miskolc — Graph

°F

Miskolc temperature yesterday

Maximum temperature yesterday: 43 °F (at 3:00 PM)
Minimum temperature yesterday: 37 °F (at 11:00 AM)
Average temperature yesterday: 40 °F

Past Weeks' High & Low Weather Summary

 TemperatureHumidityPressure
High57 °F (Jan 11, 2:00 AM)94% (Jan 19, 7:00 AM)30.25 "Hg (Jan 19, 7:00 AM)
Low27 °F (Jan 14, 9:00 AM)35% (Jan 11, 1:00 PM)29.64 "Hg (Jan 11, 1:00 AM)
Average39 °F81%30.00 "Hg
* Reported Jan 10 12:00 Noon — Jan 25 12:00 Noon, Miskolc, Weather by CustomWeather, © 2014

Note: Actual official high and low records may vary slightly from our data, if they occured in-between our weather recording intervals... More about our weather records

Advertising

Miskolc weather history for previous 24 hours

 ConditionsComfort  
Time TempWeatherWind HumidityBarometerVisibility
12:00 PM
Jan 25
38 °FLight rain. Overcast.1 mph87%30.00 "Hg5 mi
11:00 AM38 °FLight rain. Overcast.2 mph88%29.99 "Hg4 mi
10:00 AM37 °FLight rain. Overcast.1 mph88%29.98 "Hg5 mi
9:00 AM37 °FLight rain. Overcast.1 mph89%29.96 "Hg5 mi
8:00 AM36 °FLight rain. Overcast.1 mph91%29.94 "Hg4 mi
7:00 AM36 °FLight rain. Overcast.1 mph90%29.93 "Hg5 mi
6:00 AM36 °FLight rain. Overcast.2 mph90%29.91 "Hg7 mi
5:00 AM37 °FLight rain. Overcast.1 mph89%29.90 "Hg7 mi
4:00 AM37 °FLight rain. Overcast.1 mph85%29.89 "Hg9 mi
3:00 AM37 °FLight rain. Overcast.1 mph83%29.88 "Hg12 mi
2:00 AM37 °FOvercast.1 mph83%29.87 "Hg12 mi
1:00 AM38 °FOvercast.1 mph81%29.86 "Hg12 mi
12:00 AM39 °FOvercast.No wind75%29.86 "Hg12 mi
11:00 PM
Jan 24
39 °FOvercast.1 mph77%29.85 "Hg11 mi
10:00 PM38 °FOvercast.1 mph76%29.85 "Hg11 mi
9:00 PM38 °FLight rain. Overcast.1 mph78%29.84 "Hg9 mi
8:00 PM39 °FOvercast.2 mph75%29.83 "Hg9 mi
7:00 PM38 °FOvercast.No wind77%29.83 "Hg9 mi
6:00 PM40 °FOvercast.2 mph75%29.81 "Hg11 mi
5:00 PM41 °FOvercast.2 mph77%29.79 "Hg11 mi
4:00 PM43 °FOvercast.2 mph76%29.78 "Hg11 mi
3:00 PM43 °FOvercast.2 mph77%29.78 "Hg11 mi
2:00 PM42 °FOvercast.3 mph79%29.80 "Hg11 mi
1:00 PM41 °FOvercast.2 mph81%29.82 "Hg11 mi
Weather by CustomWeather, © 2014

See weather overviewHow to use our weather pages